CAPE
0 0 0 0 0 0 0 0 0 0 0 0 0 0 0 0 0 0 0 0 0 0 0 0 0 0 0 0 0 0 87 321 477 399 224 159 86 31 24 0 0 0 0 0
0 0 0 0 0 0 0 0 0 0 0 3 0 0 0 0 0 0 0 0 0 0 0 0 0 0 0 0 0 0 21 210 366 384 179 88 66 17 14 2 0 0 0 0
0 0 0 0 0 0 0 0 0 3 0 0 0 0 0 0 0 0 0 0 0 0 0 0 0 0 0 0 0 0 0 166 211 213 136 62 22 7 0 1 2 0 0 0
0 0 0 0 0 0 0 0 0 0 0 0 0 0 0 0 0 0 0 0 0 0 0 0 0 0 0 0 0 0 1 73 153 192 114 151 65 4 1 2 1 0 0 0
0 0 0 0 0 0 0 0 0 0 0 0 0 0 0 0 0 0 0 0 0 0 0 0 0 0 0 0 0 0 33 118 266 192 112 126 126 50 7 2 2 2 0 0
0 0 0 0 0 0 0 0 0 0 0 0 0 0 0 0 0 0 0 0 0 0 0 0 0 0 0 0 0 0 60 196 299 243 216 165 108 65 4 2 2 2 1 0
0 0 0 0 0 0 0 0 0 0 0 0 0 0 0 0 0 0 0 0 1 0 0 0 0 0 0 0 0 0 68 199 275 180 200 209 187 81 10 6 2 1 1 1
0 0 0 0 0 0 0 0 0 0 0 0 0 0 0 0 0 0 0 0 0 1 2 0 0 0 0 0 0 0 1 55 215 86 119 167 190 161 24 28 27 1 2 1
0 0 0 0 0 0 0 0 0 0 0 0 0 0 0 0 0 0 0 0 0 0 3 2 2 3 2 0 0 3 0 0 0 0 2 66 141 126 58 1 1 1 1 1
0 0 0 0 0 0 0 0 0 0 0 0 0 0 0 0 0 0 0 0 0 0 0 1 2 2 1 0 0 1 3 0 1 0 0 0 0 17 11 0 0 0 1 0
0 0 0 0 0 0 0 0 0 0 0 0 0 0 0 0 0 0 0 0 0 0 0 0 2 2 2 0 0 0 0 0 0 0 0 0 0 0 1 2 1 0 0 0
0 0 0 0 0 0 0 0 0 0 0 0 0 0 0 0 0 0 0 0 0 0 0 0 1 0 1 2 1 0 0 0 0 0 0 0 0 0 0 0 0 0 0 0
0 0 0 0 0 0 0 0 0 0 0 0 0 0 0 0 0 0 0 0 0 0 0 0 0 0 0 0 3 1 0 0 0 0 0 0 0 0 0 0 0 0 0 0
1 0 0 0 0 0 0 0 0 0 0 0 0 0 0 0 0 0 0 0 0 0 0 0 0 0 0 0 1 2 2 1 0 0 0 0 0 0 0 0 0 0 0 0
0 0 0 0 0 0 0 0 0 0 0 0 0 0 0 0 0 0 0 0 0 0 0 0 0 0 0 0 0 0 0 0 1 0 0 1 1 1 1 0 0 0 0 1
0 0 0 0 0 0 0 0 0 0 0 0 0 0 0 0 0 0 0 0 0 0 0 0 0 0 0 0 0 0 0 0 1 0 1 1 0 0 1 1 1 0 0 0
0 0 0 0 0 0 0 0 0 0 0 0 0 0 0 0 0 0 0 0 0 0 0 0 0 0 0 0 0 0 0 0 0 0 0 0 0 0 0 1 1 1 0 0
0 0 0 0 0 0 0 0 0 0 0 0 0 0 0 0 0 0 0 0 0 0 0 0 0 0 0 0 0 0 0 0 0 0 0 0 0 0 0 0 0 0 1 1
0 0 0 0 0 0 0 0 0 0 0 0 0 0 0 0 0 0 0 0 0 0 0 0 0 0 0 0 0 0 0 0 0 0 0 0 0 0 0 0 0 0 0 1
0 0 0 0 0 0 0 0 0 0 0 0 0 0 0 0 0 0 0 0 0 0 0 0 0 0 0 0 0 0 0 0 0 0 0 0 0 0 0 0 0 0 0 0
0 0 0 0 0 0 0 0 0 0 0 0 0 0 0 0 0 0 0 0 0 0 0 0 0 0 0 0 0 0 0 0 0 0 0 0 0 0 0 0 0 0 0 0
0 0 0 0 0 0 0 0 0 0 0 0 0 0 0 0 0 0 0 0 0 0 0 0 0 0 0 0 0 0 0 0 0 0 0 0 0 0 0 0 0 0 0 0
0 0 0 0 0 0 0 0 0 0 0 0 0 0 0 0 0 0 0 0 0 0 0 0 0 0 0 0 0 0 0 0 0 0 0 0 0 0 0 0 0 0 0 0
0 0 0 0 0 0 0 0 0 0 0 0 0 0 0 0 0 0 0 0 0 0 0 0 0 0 0 0 0 0 0 0 0 0 0 0 0 0 0 0 0 0 0 0
0 0 0 0 0 0 0 0 0 0 0 0 0 0 0 0 0 0 0 0 0 0 0 0 0 0 0 0 0 0 0 0 0 0 0 0 0 0 0 0 0 0 0 0
0 0 0 0 0 0 0 0 0 0 0 0 0 0 0 0 0 0 0 0 0 0 0 0 0 0 0 0 0 0 0 0 0 0 0 0 0 0 0 0 0 0 0 0
CIN
-0 -0 -0 -0 -0 -0 -0 -0 -0 -0 -0 -0 -0 -0 -0 -0 -0 -0 -0 -0 -0 -0 -0 -0 -0 -0 -0 -0 -0 -0 -14 -19 -21 -11 -26 -57 -94 -144 -169 -0 -0 -0 -0 -0
-0 -0 -0 -0 -0 -0 -0 -0 -0 -0 -0 -1 -0 -0 -0 -0 -0 -0 -0 -0 -0 -0 -0 -0 -0 -0 -0 -0 -0 -0 -47 -26 -36 -10 -35 -69 -109 -179 -193 -0 -0 -0 -0 -0
-0 -0 -0 -0 -0 -0 -0 -0 -1 -1 -0 -0 -0 -0 -0 -0 -0 -0 -0 -0 -0 -0 -0 -0 -0 -0 -0 -0 -0 -0 -4 -17 -44 -65 -50 -46 -98 -174 -0 -0 -0 -0 -0 -0
-0 -0 -0 -0 -0 -0 -0 -0 -0 -0 -0 -0 -0 -0 -0 -0 -0 -0 -0 -0 -0 -0 -0 -0 -0 -0 -0 -0 -0 -0 -29 -35 -17 -48 -77 -51 -36 -110 -22 -0 -0 -0 -0 -0
-0 -0 -0 -0 -0 -0 -0 -0 -0 -0 -0 -0 -0 -0 -0 -0 -0 -0 -0 -0 -0 -0 -0 -0 -0 -0 -0 -0 -0 -0 -102 -76 -54 -69 -77 -61 -40 -95 -95 -0 -0 -0 -0 -0
-0 -0 -0 -0 -0 -0 -0 -0 -0 -0 -0 -0 -0 -0 -0 -0 -0 -0 -0 -0 -0 -0 -0 -0 -0 -0 -0 -0 -0 -0 -87 -55 -55 -71 -83 -80 -50 -51 -102 -0 -0 -0 -0 -0
-0 -0 -0 -0 -0 -0 -0 -0 -0 -0 -0 -0 -0 -0 -0 -0 -0 -0 -0 -0 -0 -0 -0 -0 -0 -0 -0 -0 -0 -0 -112 -44 -38 -44 -66 -88 -60 -43 -101 -167 -101 -0 -0 -0
-0 -0 -0 -0 -0 -0 -0 -0 -0 -0 -0 -0 -0 -0 -0 -0 -0 -0 -0 -0 -0 -0 -0 -0 -0 -0 -0 -0 -0 -0 -5 -112 -54 -43 -34 -62 -50 -19 -56 -124 -173 -0 -0 -0
-0 -0 -0 -0 -0 -0 -0 -0 -0 -0 -0 -0 -0 -0 -0 -0 -0 -0 -0 -0 -0 -0 -0 -0 -0 -0 -0 -0 -0 -0 -0 -0 -0 -0 -19 -36 -20 -13 -33 -0 -0 -0 -0 -0
-0 -0 -0 -0 -0 -0 -2 -0 -0 -0 -0 -0 -0 -0 -0 -0 -0 -0 -0 -0 -0 -0 -0 -0 -0 -0 -0 -0 -0 -0 -0 -0 -0 -0 -0 -0 -0 -8 -18 -0 -0 -0 -0 -0
-0 -0 -0 -0 -0 -0 -0 -0 -0 -0 -0 -0 -0 -0 -0 -0 -0 -0 -0 -0 -0 -0 -0 -0 -0 -0 -0 -0 -0 -0 -0 -0 -0 -0 -0 -0 -0 -0 -4 -16 -27 -0 -0 -0
-0 -0 -0 -0 -0 -0 -0 -0 -0 -0 -0 -0 -0 -0 -0 -0 -0 -0 -0 -0 -0 -0 -0 -0 -0 -0 -0 -0 -0 -0 -0 -0 -0 -0 -0 -0 -0 -0 -0 -1 -0 -0 -0 -0
-0 -0 -0 -0 -0 -0 -0 -0 -0 -0 -0 -0 -0 -0 -0 -0 -0 -0 -0 -0 -0 -0 -0 -0 -0 -0 -0 -0 -0 -0 -0 -0 -0 -0 -0 -0 -0 -0 -0 -0 -0 -0 -0 -0
-3 -0 -0 -0 -0 -0 -0 -0 -0 -0 -0 -0 -0 -0 -0 -0 -0 -0 -0 -0 -0 -0 -0 -0 -0 -0 -0 -0 -0 -0 -0 -0 -0 -0 -0 -0 -0 -0 -0 -0 -0 -0 -0 -0
-0 -0 -0 -0 -0 -0 -0 -0 -0 -0 -0 -0 -0 -0 -0 -0 -0 -0 -0 -0 -0 -0 -0 -0 -0 -0 -0 -0 -0 -0 -0 -0 -0 -0 -0 -0 -0 -0 -0 -0 -0 -0 -0 -0
-0 -0 -0 -0 -0 -0 -0 -0 -0 -0 -0 -0 -0 -0 -0 -0 -0 -0 -0 -0 -0 -0 -0 -0 -0 -0 -0 -0 -0 -0 -0 -0 -0 -0 -0 -0 -0 -0 -0 -0 -0 -0 -0 -0
-0 -0 -0 -0 -0 -0 -0 -0 -0 -0 -0 -0 -0 -0 -0 -0 -0 -0 -0 -0 -0 -0 -0 -0 -0 -0 -0 -0 -0 -0 -0 -0 -0 -0 -0 -0 -0 -0 -0 -0 -0 -0 -0 -0
-0 -0 -0 -0 -0 -0 -0 -0 -0 -0 -0 -0 -0 -0 -0 -0 -0 -0 -0 -0 -0 -0 -0 -0 -0 -0 -0 -0 -0 -0 -0 -0 -0 -0 -0 -0 -0 -0 -0 -0 -0 -0 -0 -0
-0 -0 -0 -0 -0 -0 -0 -0 -0 -0 -0 -0 -0 -0 -0 -0 -0 -0 -0 -0 -0 -0 -0 -0 -0 -0 -0 -0 -0 -0 -0 -0 -0 -0 -0 -0 -0 -0 -0 -0 -0 -0 -0 -0
-0 -0 -0 -0 -0 -0 -0 -0 -0 -0 -0 -0 -0 -0 -0 -0 -0 -0 -0 -0 -0 -0 -0 -0 -0 -0 -0 -0 -0 -0 -0 -0 -0 -0 -0 -0 -0 -0 -0 -0 -0 -0 -0 -0
-0 -0 -0 -0 -0 -0 -0 -0 -0 -0 -0 -0 -0 -0 -0 -0 -0 -0 -0 -0 -0 -0 -0 -0 -0 -0 -0 -0 -0 -0 -0 -0 -0 -0 -0 -0 -0 -0 -0 -0 -0 -0 -0 -0
-0 -0 -0 -0 -0 -0 -0 -0 -0 -0 -0 -0 -0 -0 -0 -0 -0 -0 -0 -0 -0 -0 -0 -0 -0 -0 -0 -0 -0 -0 -0 -0 -0 -0 -0 -0 -0 -0 -0 -0 -0 -0 -0 -0
-0 -0 -0 -0 -0 -0 -0 -0 -0 -0 -0 -0 -0 -0 -0 -0 -0 -0 -0 -0 -0 -0 -0 -0 -0 -0 -0 -0 -0 -0 -0 -0 -0 -0 -0 -0 -0 -0 -0 -0 -0 -0 -0 -0
-0 -0 -0 -0 -0 -0 -0 -0 -0 -0 -0 -0 -0 -0 -0 -0 -0 -0 -0 -0 -0 -0 -0 -0 -0 -0 -0 -0 -0 -0 -0 -0 -0 -0 -0 -0 -0 -0 -0 -0 -0 -0 -0 -0
-0 -0 -0 -0 -0 -0 -0 -0 -0 -0 -0 -0 -0 -0 -0 -0 -0 -0 -0 -0 -0 -0 -0 -0 -0 -0 -0 -0 -0 -0 -0 -0 -0 -0 -0 -0 -0 -0 -0 -0 -0 -0 -0 -0
-0 -0 -0 -0 -0 -0 -0 -0 -0 -0 -0 -0 -0 -0 -0 -0 -0 -0 -0 -0 -0 -0 -0 -0 -0 -0 -0 -0 -0 -0 -0 -0 -0 -0 -0 -0 -0 -0 -0 -0 -0 -0 -0 -0
Wind_Speed
31 34 34 26 24 28 32 39 44 40 41 46 50 53 56 58 57 59 58 57 58 59 57 53 53 52 50 48 47 42 41 40 37 39 40 41 40 36 35 33 31 27 26 24
32 32 27 26 28 33 23 32 47 39 40 43 47 54 49 52 54 55 56 56 56 57 58 57 52 52 52 48 46 45 41 37 39 38 38 40 39 38 37 34 32 30 28 25
29 27 26 27 32 31 24 24 18 36 34 22 41 49 44 48 49 54 56 57 57 59 61 60 55 51 52 52 47 46 45 39 37 38 35 36 36 37 37 36 34 33 29 28
25 24 29 24 24 37 23 36 24 25 20 43 33 46 40 34 36 40 47 52 54 57 58 59 58 55 51 52 49 48 48 45 41 36 36 37 41 42 41 39 36 35 31 29
25 26 27 20 19 35 15 31 23 29 24 18 36 29 29 37 33 32 36 46 51 53 56 57 55 55 55 49 47 49 48 48 43 39 38 38 41 42 41 39 35 36 36 31
16 22 21 13 28 35 37 13 25 18 19 30 28 19 34 30 33 34 35 33 37 44 50 52 52 49 50 50 49 47 48 48 44 40 38 38 41 40 38 38 37 37 37 36
24 27 27 19 32 32 23 22 32 32 37 37 28 22 22 31 33 33 33 29 26 28 32 38 40 41 40 40 41 41 45 46 44 43 41 40 38 40 38 35 35 39 39 37
30 40 30 31 26 10 34 21 28 39 41 40 30 18 19 27 22 34 32 29 24 22 25 31 34 34 34 34 35 35 37 40 40 41 43 42 41 40 41 37 35 36 42 39
27 22 21 9 24 26 16 23 8 9 14 27 21 23 4 24 36 40 34 29 25 21 21 26 29 29 30 28 29 30 30 30 31 33 35 38 38 41 40 40 36 34 35 35
21 18 23 19 31 18 13 11 16 16 32 29 19 24 28 29 38 41 33 26 23 21 19 19 22 23 25 25 25 26 26 26 26 29 29 31 34 39 39 37 40 35 31 31
21 13 16 27 18 21 22 13 19 15 9 13 25 25 15 17 24 36 29 21 20 18 16 14 15 16 19 23 24 25 25 26 28 28 31 32 34 35 39 38 39 41 37 32
17 15 14 20 21 10 16 12 18 12 13 18 20 17 10 17 10 14 27 18 16 15 12 11 10 12 14 18 21 24 24 24 27 28 31 33 34 36 39 40 39 35 39 38
20 14 14 29 22 20 19 11 13 8 18 20 21 18 4 3 9 23 21 15 13 12 10 10 8 8 12 17 18 19 21 23 26 28 30 31 33 35 36 39 39 36 36 38
10 15 7 9 26 27 23 18 17 13 19 21 18 15 15 10 9 10 7 13 10 8 7 8 9 11 14 16 16 17 17 19 24 28 29 30 32 32 33 33 35 37 36 35
14 12 9 27 31 28 22 17 5 5 21 20 19 16 14 13 9 4 9 7 6 7 8 10 11 11 13 14 16 14 12 16 20 22 24 27 28 29 30 30 31 31 34 36
19 14 19 29 28 25 25 5 23 10 20 18 20 18 22 13 13 9 3 4 10 9 11 10 10 11 11 9 11 11 13 16 18 19 20 23 25 26 28 29 30 31 31 32
16 12 16 14 28 28 19 19 22 20 19 20 20 20 20 17 17 14 10 6 3 6 10 11 13 13 12 12 11 12 13 16 17 17 17 19 21 24 26 28 30 31 32 32
7 5 13 18 27 17 18 18 21 21 19 16 17 18 18 17 16 18 17 12 9 11 12 11 9 10 11 12 14 14 15 16 16 17 17 18 19 20 22 24 26 28 30 32
7 6 14 16 21 26 20 19 20 21 20 11 20 18 19 15 14 17 16 14 13 13 13 14 13 12 11 14 15 16 16 16 16 17 18 19 19 19 20 20 22 24 26 29
2 1 10 16 19 17 18 20 19 18 18 17 18 18 16 13 13 12 12 12 13 14 14 15 16 17 17 17 17 17 18 18 19 20 20 20 20 20 21 22 22 23 23 25
9 12 8 5 15 23 19 17 16 19 21 20 19 18 16 13 11 11 9 9 9 9 13 15 17 19 19 19 19 20 19 20 21 21 21 21 21 21 21 22 22 23 23 23
10 13 15 13 15 21 11 18 21 22 22 19 16 14 13 11 12 13 12 13 13 14 14 15 17 18 19 20 21 21 21 22 22 22 22 22 22 22 22 22 22 22 22 23
14 12 17 9 15 17 10 22 21 20 21 18 14 11 9 8 9 11 13 16 18 19 20 21 22 23 26 26 26 25 25 25 25 24 23 23 23 22 22 23 23 22 22 22
12 15 18 19 20 25 24 17 16 16 17 12 10 8 6 6 7 9 11 14 16 19 21 23 25 27 29 30 29 28 28 28 27 26 25 25 24 24 23 22 22 22 22 23
13 16 19 23 30 29 24 15 12 9 13 10 8 6 3 4 5 8 10 13 16 19 22 25 27 29 31 31 31 31 31 30 29 28 27 26 26 25 25 24 23 23 22 23
13 21 24 26 24 21 23 20 10 6 5 10 7 5 3 2 4 6 10 13 16 19 22 25 28 30 32 33 33 33 32 31 30 30 29 29 28 27 26 25 25 23 22 23
Wind_Direction
349 342 334 331 328 326 324 317 312 274 274 303 294 290 282 273 269 264 263 259 257 255 253 255 252 251 253 251 249 248 244 241 238 236 236 235 235 232 233 232 232 228 230 228
347 343 349 343 332 327 326 323 296 277 290 308 302 292 288 277 270 265 260 260 259 254 252 251 252 248 247 250 247 246 244 240 239 237 236 238 238 238 234 233 231 230 229 228
344 338 342 342 333 330 268 330 299 289 285 300 308 292 298 284 276 268 263 260 257 254 250 248 248 247 245 246 247 244 243 240 239 239 238 240 241 242 239 237 234 232 229 229
348 352 343 332 333 314 271 322 278 278 289 306 334 300 301 305 295 281 268 261 257 253 249 247 246 246 244 244 246 246 244 242 241 239 239 239 241 240 241 238 236 235 231 230
345 344 341 335 338 316 330 284 276 276 276 303 325 318 323 309 307 306 294 271 259 254 247 244 245 245 245 246 247 247 245 241 240 238 240 242 242 243 244 242 238 241 238 235
345 349 348 346 282 311 291 308 285 4 3 332 343 339 319 325 312 314 309 295 270 256 247 244 245 245 247 247 250 250 244 241 238 237 239 241 243 243 244 241 240 241 238 238
353 7 358 9 296 324 0 358 304 334 330 325 338 295 334 331 326 319 312 311 292 268 253 245 244 244 246 245 248 250 244 242 238 237 240 241 243 243 243 243 243 241 246 239
360 351 6 344 287 1 298 8 348 325 322 301 319 347 354 330 22 345 318 315 309 284 260 249 245 245 244 244 246 247 243 240 239 237 239 243 244 244 245 246 247 248 244 246
357 358 354 0 344 343 10 357 357 344 1 345 341 332 206 302 328 340 315 310 307 298 277 253 246 245 243 243 244 245 242 240 241 243 245 244 245 245 245 245 247 248 249 249
360 329 3 5 299 2 19 8 20 16 338 309 278 343 311 311 320 334 317 303 304 299 286 263 247 246 245 244 247 247 243 239 242 245 249 249 250 249 247 246 244 246 249 248
355 2 354 285 275 269 8 31 15 22 34 235 297 330 284 309 311 325 317 294 292 293 287 272 251 251 249 246 248 248 248 244 247 252 253 255 255 255 252 250 249 246 248 248
2 3 354 268 265 47 21 20 14 31 259 238 255 260 285 305 345 31 322 295 285 283 286 276 264 258 260 251 255 253 252 253 255 258 259 258 259 259 256 252 251 251 249 248
2 7 348 315 330 357 10 15 28 37 255 253 282 276 56 347 21 44 324 301 287 276 273 274 271 277 260 250 253 261 261 261 264 263 262 262 263 262 258 256 255 254 253 250
347 353 351 268 259 269 272 265 261 46 278 282 243 256 285 298 334 46 341 311 291 267 268 284 287 281 274 268 266 268 265 270 270 269 267 266 264 263 261 260 259 256 254 253
1 345 337 262 259 260 254 248 69 103 288 289 275 262 280 292 310 1 78 322 283 265 283 298 307 292 281 268 270 277 281 280 280 276 271 268 267 265 263 262 262 261 258 257
350 350 349 276 282 304 269 91 320 54 293 271 279 281 313 276 297 315 353 352 333 307 306 301 305 310 309 286 284 281 285 290 293 291 280 274 271 268 264 265 264 263 262 261
341 359 356 5 299 290 300 332 305 318 337 300 314 314 302 301 316 318 319 322 326 326 326 324 330 316 312 308 308 309 304 305 308 303 294 286 281 274 270 268 266 265 264 264
336 16 356 345 302 328 311 346 336 315 322 344 262 277 293 294 346 338 332 322 323 329 335 332 315 321 321 323 331 323 324 320 315 308 307 299 293 287 282 276 272 269 267 265
180 12 357 347 326 293 305 326 337 322 305 68 300 285 305 299 31 337 335 332 329 331 334 340 331 326 324 336 336 342 339 328 323 316 307 303 300 296 291 287 282 278 274 270
328 145 355 342 329 322 307 322 307 315 308 269 255 283 290 314 331 307 299 321 337 344 342 346 349 351 350 340 337 340 340 335 326 318 313 309 305 300 295 291 287 285 282 279
324 318 323 341 329 298 299 321 324 317 305 300 280 276 278 286 293 258 269 313 318 324 341 346 356 359 353 345 345 348 341 334 324 317 318 317 313 308 302 297 294 290 287 284
323 314 312 329 326 313 327 317 302 305 307 311 314 324 318 337 5 16 359 350 341 338 335 336 344 345 340 340 341 340 337 327 327 325 322 316 314 312 310 306 301 297 293 288
319 305 307 321 319 320 350 318 307 317 308 310 315 331 352 10 23 34 31 26 17 6 358 354 346 342 352 348 346 336 332 329 327 325 323 322 321 319 313 307 303 300 298 294
317 305 299 305 308 303 312 325 329 316 315 330 326 332 345 2 25 23 21 17 14 12 7 3 356 350 346 346 346 343 338 335 332 331 325 321 318 316 316 314 310 303 299 295
320 312 300 296 291 299 312 334 339 340 314 327 328 326 340 2 6 7 5 1 357 355 355 353 350 349 345 338 337 336 334 332 328 325 322 319 316 315 315 314 310 306 302 297
311 296 288 291 302 307 310 320 357 16 343 309 307 302 314 11 22 5 354 347 346 344 342 341 343 342 338 338 337 336 334 331 327 321 317 313 309 308 309 309 307 309 306 301